Wind_Speed
32 31 31 30 30 30 28 27 25 24 23 22 21 19 18 17 16 15 14 13 13 12 12 12 12 12 12 12 13 13 13 13 14 14 14 15 15 16 16 16 16 16 15 15 15 15 14 14 14 14 14 14 14 14 14 14 14 14 14 14 14 14 14 14 14 14 14 14 14 14 14 14 14 14 14 14 14 14 14 13 13 12 11 10 10 9
31 31 30 30 29 29 27 25 24 23 22 21 19 17 16 15 14 14 13 13 12 12 12 12 13 13 13 13 13 13 14 14 14 14 15 15 16 16 16 16 16 16 16 15 15 15 15 14 14 14 14 14 14 14 14 14 14 14 14 14 14 14 14 14 14 14 14 14 14 14 14 14 14 14 15 15 15 14 14 14 14 13 12 12 11 11
31 30 30 29 28 27 26 24 23 21 20 19 17 16 15 14 14 13 13 13 12 12 12 12 13 13 14 14 14 14 14 14 15 15 15 16 16 16 16 17 16 16 16 16 15 15 15 15 14 14 14 14 14 15 15 15 15 15 15 14 14 14 14 14 14 14 14 14 14 14 14 14 14 14 15 15 15 15 15 14 14 14 13 13 13 12
29 29 29 28 27 25 24 22 21 20 18 17 15 14 14 13 13 13 13 13 12 12 12 13 13 14 14 15 15 15 15 15 15 15 16 16 16 17 17 17 16 16 16 16 16 15 15 15 15 15 15 15 15 15 15 15 15 15 15 15 15 15 15 15 15 15 15 15 15 15 15 14 14 14 15 15 15 15 15 15 15 14 14 14 14 14
28 28 28 27 25 24 22 21 19 18 16 15 14 14 13 13 13 13 13 12 12 12 12 13 14 14 15 15 15 15 15 16 16 16 16 16 16 16 17 17 17 16 16 16 16 16 15 15 15 15 15 15 15 15 15 15 15 15 15 15 15 15 15 15 15 16 16 16 16 16 15 15 15 15 15 15 15 16 16 15 15 15 15 15 15 14
27 27 26 25 24 22 20 19 18 16 15 14 14 14 14 13 13 13 13 12 12 12 12 13 14 15 15 16 16 16 16 16 16 16 16 16 16 16 17 17 17 17 16 16 16 16 16 16 15 15 16 16 16 16 16 16 16 16 16 16 16 16 16 16 16 16 16 16 16 16 16 16 16 15 15 15 15 16 16 16 16 15 15 15 15 15
26 25 25 24 22 20 19 17 16 15 15 14 14 14 14 14 13 13 13 13 13 13 13 14 15 15 16 16 16 16 16 16 16 16 16 17 17 17 17 17 17 17 16 16 16 16 16 16 16 16 16 16 16 16 16 16 16 16 16 16 16 16 16 16 16 16 16 17 17 17 17 16 16 16 16 15 15 16 16 16 16 16 16 15 15 15
24 24 23 22 20 18 17 16 15 14 14 14 14 14 14 14 13 13 13 13 13 13 14 14 15 16 16 17 17 16 16 16 16 16 17 17 17 17 17 17 17 17 17 16 16 16 16 16 16 16 16 17 17 17 17 17 17 17 17 17 16 16 16 16 17 17 17 17 17 17 17 17 17 16 16 16 16 16 16 16 16 16 16 16 16 15
23 22 21 20 18 17 16 15 15 14 14 14 14 14 14 13 13 13 13 14 14 14 15 15 16 16 17 17 17 17 17 17 17 17 17 17 17 17 17 17 17 17 17 17 16 16 16 17 17 17 17 17 17 17 17 17 17 17 17 17 17 17 17 17 17 17 17 17 17 17 17 17 17 17 17 17 16 16 16 16 16 16 16 16 16 16
21 20 19 18 17 16 15 14 14 14 14 14 14 14 14 13 13 14 14 15 15 16 16 16 16 16 17 18 18 18 17 17 17 17 17 17 17 17 17 17 17 17 17 17 17 17 17 17 17 17 17 17 18 18 18 18 18 18 17 17 17 17 17 17 17 17 17 17 18 18 18 18 18 18 17 17 17 17 16 16 16 16 16 16 16 16
19 18 17 17 16 15 14 14 14 14 14 14 14 14 14 14 14 14 14 15 16 17 17 17 17 17 17 18 18 18 18 17 17 17 17 17 17 17 17 17 17 17 17 17 17 17 17 17 18 18 18 18 18 18 18 18 18 18 18 18 18 17 17 17 17 17 17 18 18 18 18 18 18 18 18 18 18 17 17 17 17 16 16 16 16 16
17 16 16 15 15 14 14 13 13 14 14 14 14 14 14 14 14 14 14 15 16 17 18 18 18 17 17 17 18 18 18 18 17 17 17 17 17 17 17 18 18 18 18 18 18 18 18 18 18 18 18 18 18 18 18 18 18 18 18 18 18 18 18 18 17 17 17 18 18 18 18 18 18 18 18 18 18 18 18 17 17 17 17 16 16 16
16 15 14 14 14 13 13 13 13 14 14 14 14 14 14 15 15 15 15 15 16 17 18 18 18 18 18 18 18 18 18 18 18 17 17 17 17 18 18 18 18 18 18 18 18 18 18 19 19 19 19 19 19 19 19 19 18 18 18 18 18 18 18 18 18 18 17 17 18 18 18 18 18 18 18 18 18 18 18 18 18 18 17 17 17 17
14 13 13 13 13 13 13 14 14 14 15 15 15 15 15 16 16 16 16 16 17 18 18 18 18 18 18 18 18 18 17 17 18 18 18 18 18 18 18 18 18 18 18 18 18 19 19 19 19 19 19 19 19 19 19 19 19 19 19 18 18 18 18 18 18 18 18 17 17 17 17 17 17 17 17 18 18 18 18 18 18 18 18 18 18 18
13 12 12 12 12 13 13 14 14 15 15 16 16 16 16 17 17 17 16 16 17 17 18 18 18 18 18 18 18 18 18 18 18 18 18 18 18 18 18 19 19 19 19 19 19 19 20 20 20 20 20 20 20 20 19 19 19 19 19 19 19 18 18 18 18 18 18 18 17 17 17 17 17 17 17 17 17 18 18 18 18 18 18 18 19 19
12 11 12 12 13 13 14 15 15 15 16 16 16 17 17 17 17 17 17 17 17 17 18 18 18 18 18 18 19 18 18 18 18 18 18 18 18 18 19 19 19 19 20 20 20 20 20 20 20 20 20 20 20 20 20 20 20 19 19 19 19 19 19 18 18 18 18 18 18 17 17 17 17 17 17 17 18 18 18 18 18 18 19 19 19 19
11 12 12 13 13 14 15 15 16 16 16 17 17 17 17 17 17 17 17 17 17 17 18 18 18 18 18 19 19 19 19 18 18 19 19 18 19 19 19 19 20 20 20 20 20 21 21 21 21 21 21 21 21 20 20 20 20 20 20 20 19 19 19 19 19 18 18 18 18 18 18 18 18 18 18 18 18 18 18 18 19 19 19 19 19 20
12 12 13 13 14 15 16 16 16 17 17 17 17 17 17 17 17 17 17 17 17 17 18 18 18 18 18 18 19 19 19 19 19 19 19 19 19 19 20 20 20 20 20 21 21 21 21 21 21 21 21 21 21 21 21 21 20 20 20 20 20 19 19 19 19 19 19 19 19 19 19 19 19 18 18 18 18 18 19 19 19 19 19 20 20 20
13 14 14 14 15 16 16 17 17 17 17 17 17 17 17 17 17 17 17 17 17 18 18 18 18 19 18 18 19 19 19 19 19 20 20 20 20 20 21 21 21 21 21 21 21 21 21 22 22 22 22 22 21 21 21 21 21 21 20 20 20 20 20 19 19 19 19 19 19 19 19 19 19 19 19 19 19 19 19 19 19 20 20 20 20 20
14 15 15 15 15 16 17 17 18 17 17 17 17 17 17 17 17 17 17 17 18 18 18 18 19 19 19 19 19 19 19 19 20 20 21 21 21 21 22 22 22 22 22 21 22 22 22 22 22 22 22 22 22 22 21 21 21 21 21 21 20 20 20 20 20 20 20 20 20 20 20 20 20 20 20 20 20 20 20 20 20 20 20 20 20 21
15 15 15 15 15 16 17 17 18 17 17 17 17 17 17 17 17 17 17 18 18 18 18 18 19 19 19 19 19 19 20 20 20 21 21 22 22 22 22 22 22 22 22 22 22 22 22 22 23 23 23 22 22 22 22 22 22 22 21 21 21 21 21 20 20 20 20 20 21 21 21 21 21 21 21 21 21 21 21 21 21 21 21 21 21 21
15 15 16 16 16 16 17 17 17 17 17 17 16 17 17 17 17 17 18 18 18 18 18 19 19 19 20 20 20 20 20 20 20 21 22 22 22 23 23 22 22 22 23 23 23 23 23 23 23 23 23 23 23 23 22 22 22 22 22 22 22 22 21 21 21 21 21 21 21 21 21 22 22 22 22 22 22 22 22 22 21 21 21 21 21 21
15 15 16 16 16 16 16 17 17 17 16 16 16 16 17 17 17 17 18 18 18 18 19 19 20 20 20 20 20 21 21 21 21 21 21 22 22 23 23 23 23 23 23 24 23 23 23 23 23 24 24 24 23 23 23 23 23 23 23 23 23 23 22 22 22 22 22 22 22 22 22 22 22 23 23 23 23 23 22 22 22 22 22 22 22 22
15 15 15 15 15 15 16 16 16 16 16 16 16 17 17 17 17 18 18 18 18 19 19 20 20 21 21 21 21 21 21 21 21 21 21 22 23 23 23 23 23 23 24 24 24 24 24 24 24 24 24 24 24 24 24 24 23 23 23 24 23 23 23 23 23 23 23 23 23 23 23 23 23 23 23 23 23 23 23 23 23 22 22 22 22 22
14 14 14 14 14 15 15 15 15 15 16 16 16 17 17 17 18 18 18 18 18 19 19 20 20 20 21 21 21 21 22 22 22 22 22 22 23 23 24 23 23 23 24 25 24 24 24 24 24 25 25 24 24 24 24 24 24 24 24 24 24 24 24 24 24 24 24 24 24 23 23 23 23 23 24 24 24 24 23 23 23 23 23 23 22 22
14 14 14 13 13 14 14 14 15 15 15 16 16 17 17 17 17 18 18 18 18 18 19 19 20 20 21 21 21 21 22 22 22 22 22 22 22 23 24 24 23 24 24 25 25 24 24 24 24 25 25 25 25 25 25 25 25 25 25 25 25 25 25 25 25 25 25 25 25 24 24 24 24 24 24 24 24 24 24 24 23 23 23 23 23 23
13 13 13 13 13 13 13 14 14 15 15 16 16 16 17 17 17 17 18 18 18 18 18 19 19 20 21 21 21 21 22 22 22 22 22 22 22 23 23 24 24 24 24 25 25 24 24 24 25 25 26 26 26 26 25 25 25 25 25 25 25 25 25 25 25 25 25 25 25 25 25 25 24 24 24 24 24 24 24 24 23 23 23 23 23 23
12 12 12 13 13 13 13 14 14 15 15 16 16 16 17 17 17 17 17 18 18 18 18 18 19 19 20 21 21 22 22 22 22 22 23 22 22 23 23 24 24 24 24 25 25 25 25 25 25 25 26 26 26 26 26 26 25 25 25 25 26 26 25 25 25 26 26 26 26 26 25 25 25 24 24 24 23 23 23 23 23 23 23 23 23 23
12 12 13 13 13 14 14 14 15 15 15 16 16 16 17 17 17 17 17 18 18 18 18 18 19 19 20 20 21 22 22 22 22 22 22 22 22 23 24 24 24 24 24 25 25 25 25 25 25 26 26 26 26 26 26 26 26 26 26 26 26 26 26 25 25 25 25 26 26 26 26 26 25 25 24 24 24 23 23 23 23 23 23 23 23 23
12 13 13 13 14 14 14 15 15 15 15 16 16 16 17 17 17 17 18 18 18 18 18 18 19 19 19 20 20 21 22 22 22 22 22 22 22 23 24 24 24 24 25 25 25 25 25 26 26 26 26 26 26 26 26 26 26 26 26 26 26 26 26 26 25 25 25 25 25 26 26 26 25 25 25 24 24 24 23 23 23 23 22 22 22 23
13 13 14 14 14 15 15 15 15 16 16 16 16 17 17 17 17 18 18 18 18 18 18 19 19 19 19 19 20 21 22 23 23 22 22 22 22 23 24 24 24 25 25 24 24 24 25 26 26 27 26 26 26 27 27 27 26 27 27 27 27 27 26 26 26 25 25 25 25 25 25 25 25 25 25 25 24 24 23 23 23 22 22 22 22 23
14 14 15 15 15 15 16 16 16 16 16 17 17 17 18 18 18 18 19 19 19 19 19 20 20 20 20 20 21 22 23 23 23 23 23 23 23 24 24 24 24 25 25 25 24 24 24 25 26 27 27 27 27 27 27 27 27 27 27 27 27 27 27 26 26 26 25 25 25 25 25 25 25 25 25 25 24 24 24 23 23 23 22 22 22 22
16 16 16 16 16 17 17 17 17 17 18 18 18 19 19 19 19 20 20 20 20 20 20 21 21 21 22 22 22 23 24 24 24 24 24 24 24 25 25 25 25 25 25 25 25 24 24 24 25 26 27 27 27 27 27 27 27 27 27 27 27 27 27 27 26 26 26 25 25 25 25 24 24 24 24 24 24 24 24 24 23 23 23 22 22 23
17 17 17 17 18 18 18 18 19 19 19 20 20 20 20 21 21 21 21 22 22 22 22 22 22 22 23 23 24 24 25 25 25 25 25 25 25 25 26 26 26 26 25 25 25 25 25 25 25 25 26 27 27 27 27 27 27 27 27 27 27 27 27 27 27 26 26 25 25 25 24 24 24 24 24 24 24 24 24 24 24 24 23 23 23 23
18 18 18 18 19 19 19 20 20 20 21 21 21 22 22 22 22 23 23 23 23 23 23 23 23 24 24 24 25 25 26 26 25 25 25 25 25 26 26 26 27 26 26 26 26 25 25 25 25 25 25 26 27 28 28 27 27 27 28 28 27 27 27 27 26 26 26 25 25 25 24 24 24 24 24 24 24 24 24 24 24 24 24 24 24 24
18 19 19 19 19 20 20 21 21 21 22 22 22 23 23 23 24 24 24 24 24 24 24 24 25 25 25 25 26 26 26 27 26 26 26 26 26 26 26 26 27 27 26 26 26 26 25 25 25 25 25 25 26 27 27 28 27 27 27 28 27 27 27 26 26 26 25 25 25 25 24 24 24 24 24 24 24 24 24 25 25 25 25 25 25 25
19 20 20 20 20 21 21 22 22 22 23 23 23 24 24 24 25 25 25 25 25 25 26 26 26 26 27 27 27 27 28 28 27 27 26 26 26 26 26 26 27 27 27 26 26 26 25 25 25 25 25 25 25 25 26 27 27 27 28 28 27 27 26 26 25 25 25 24 24 24 24 24 24 24 24 24 24 24 25 25 25 25 25 25 25 25
20 21 21 21 22 22 22 23 23 23 24 24 24 25 25 25 26 26 26 26 27 27 27 27 28 28 28 29 29 29 29 29 28 28 27 27 26 26 26 26 27 27 27 26 26 26 25 25 25 25 25 25 25 25 25 26 26 27 27 28 27 27 26 25 25 24 24 24 24 24 24 24 24 24 24 24 24 24 24 25 25 25 26 26 26 26
22 22 22 22 23 23 23 23 24 24 25 25 25 26 26 26 26 27 27 27 28 28 28 29 29 30 30 30 30 30 29 29 29 28 28 27 27 26 26 26 26 27 27 27 26 26 25 25 25 25 24 25 25 25 25 25 26 26 27 27 27 27 26 25 25 24 24 24 24 24 24 24 24 24 24 24 24 24 24 25 25 26 26 26 26 27
22 23 23 23 23 24 24 24 25 25 25 26 26 27 27 27 27 27 28 28 28 29 29 30 30 31 31 31 31 30 30 29 29 28 28 27 27 26 26 26 26 26 26 26 26 26 25 25 25 25 25 24 24 24 25 25 26 26 26 26 26 26 26 25 25 24 24 24 24 24 24 24 24 24 24 24 24 24 25 25 25 26 26 26 26 26
23 23 24 24 24 24 25 25 25 26 26 27 27 27 28 28 28 28 28 29 29 30 30 30 31 31 31 31 31 31 30 30 29 29 28 27 27 27 26 26 26 26 26 26 26 26 25 25 25 25 25 24 24 24 24 25 25 26 25 25 25 25 26 25 25 25 24 24 24 24 24 24 24 24 24 24 24 25 25 25 25 26 26 26 26 26
24 24 24 25 25 25 26 26 26 27 27 28 28 28 29 29 29 29 29 30 30 30 30 31 31 31 31 31 31 31 31 30 30 29 28 28 27 27 26 26 26 26 25 25 25 25 25 25 25 25 25 24 24 24 24 24 25 25 25 24 24 24 24 25 25 25 25 24 24 24 24 24 24 24 24 24 24 25 25 25 25 26 26 26 27 27
24 24 25 25 26 26 26 26 26 27 27 28 28 29 29 30 30 30 30 30 31 31 31 31 31 31 31 31 32 32 32 31 30 29 28 28 27 27 26 26 26 25 25 25 25 25 25 25 25 25 25 25 24 24 23 24 25 25 25 24 23 23 23 24 25 25 25 25 25 25 25 24 24 24 24 24 25 25 25 25 26 26 26 26 26 27
24 25 25 26 26 26 26 26 27 27 27 28 28 29 30 30 30 30 30 30 31 31 31 32 32 32 32 32 32 32 32 32 31 30 29 28 27 27 26 26 26 25 25 25 25 25 25 25 25 25 25 25 24 24 24 24 25 25 25 24 23 22 23 24 25 25 25 25 25 25 25 25 25 25 25 25 25 25 25 26 26 26 26 26 26 26
25 25 26 26 26 27 27 27 27 27 27 28 28 29 29 30 30 30 30 31 31 31 32 32 32 32 32 32 32 32 32 32 32 31 30 29 28 27 27 26 26 25 25 25 25 25 24 24 25 25 25 25 24 24 24 24 24 24 24 24 23 23 23 24 25 25 25 26 26 26 26 25 25 25 25 25 25 25 26 26 26 26 27 27 27 26
25 26 26 27 27 27 27 27 27 27 27 28 28 28 29 29 29 30 30 31 31 32 32 32 32 32 32 32 31 31 32 32 32 31 30 29 29 28 27 27 26 25 25 25 25 25 24 24 24 25 25 25 24 24 24 24 24 24 24 23 23 23 23 24 25 25 25 25 26 26 26 26 26 25 25 25 25 26 26 26 26 27 27 27 27 27
26 26 27 27 27 28 28 27 27 27 27 28 28 28 29 29 29 30 30 31 32 32 33 33 33 32 32 32 31 31 31 31 31 31 30 30 29 29 28 27 27 26 25 25 25 25 25 25 25 24 24 24 24 24 25 25 24 24 24 23 23 23 24 25 25 25 25 26 26 26 27 26 26 26 26 26 26 26 26 27 27 27 27 27 27 27
26 26 26 26 27 27 27 27 27 28 28 28 29 29 29 29 30 30 31 32 32 33 33 33 33 33 32 32 32 31 31 30 30 30 30 30 29 29 28 28 27 26 26 25 25 25 25 25 25 24 24 24 24 24 25 25 25 24 23 23 23 23 24 25 26 26 26 26 26 27 27 27 27 26 26 26 26 26 26 26 27 27 28 28 27 27
25 25 25 25 26 26 27 27 28 28 29 29 30 30 31 31 31 31 32 32 33 33 33 33 33 33 32 32 32 32 31 30 30 30 30 29 29 29 28 28 27 27 26 26 26 25 25 25 24 24 24 24 25 25 25 24 24 24 24 23 23 23 24 25 26 26 26 26 27 27 27 28 28 27 27 26 26 25 25 26 26 27 28 28 28 27
25 25 25 25 26 26 27 28 29 29 30 30 31 31 32 32 32 33 33 33 33 33 33 33 33 33 33 32 32 32 31 31 30 30 29 29 29 28 27 27 27 27 26 26 26 26 25 25 24 24 24 25 25 25 25 24 24 24 24 24 24 24 24 25 26 26 26 27 27 27 28 28 29 28 28 27 26 25 25 25 25 26 27 27 27 27
26 26 26 26 27 27 28 29 29 30 30 31 31 32 32 33 33 33 34 34 34 34 34 33 33 33 33 32 32 32 32 31 30 30 29 29 28 27 27 26 26 26 26 26 26 26 25 25 24 24 24 26 26 26 25 24 24 24 24 24 24 24 25 25 26 26 26 27 27 28 28 29 29 29 29 28 27 26 25 25 24 25 26 26 27 27
Wind_Direction
289 290 291 291 289 288 286 285 284 284 284 283 282 281 281 280 280 279 279 279 280 282 284 286 286 287 287 288 288 288 289 290 291 292 294 294 295 295 295 295 295 295 295 294 295 295 296 297 298 299 300 301 302 303 304 304 304 305 305 306 306 307 308 308 309 310 310 310 310 309 308 305 302 299 298 296 296 295 295 295 295 295 294 292 290 286
287 288 288 287 286 284 283 283 283 282 282 281 280 279 278 278 278 278 278 279 281 283 285 286 287 287 287 287 287 288 288 290 291 292 293 293 294 294 294 294 294 295 295 295 295 295 296 297 298 299 300 301 301 302 302 303 303 303 303 304 304 305 305 305 306 306 306 306 306 306 306 304 302 299 297 296 294 293 292 292 291 290 289 288 286 285
285 286 286 284 283 282 282 282 281 280 279 278 277 277 276 276 277 278 279 280 281 283 285 286 286 286 287 287 287 287 289 290 291 292 292 292 292 292 293 293 293 294 294 294 295 296 296 297 298 299 299 300 301 301 301 301 301 301 302 302 302 303 303 303 303 303 303 302 303 303 303 302 301 299 297 296 294 293 291 290 288 287 286 284 283 281
284 284 283 281 280 280 280 280 279 277 276 275 275 275 275 276 276 277 278 280 281 283 284 285 285 285 286 286 287 288 290 291 291 291 291 291 291 291 291 292 292 293 293 294 294 295 296 297 298 298 299 299 300 300 300 300 300 300 300 300 301 301 301 301 301 301 300 300 300 300 300 299 299 298 296 295 294 293 291 290 288 286 284 282 280 279
282 282 281 279 279 279 278 277 275 274 273 273 274 275 275 276 276 277 278 279 280 282 283 283 284 284 285 286 287 289 290 291 291 291 290 290 290 290 290 291 291 292 292 293 294 295 296 297 298 298 299 299 299 299 299 299 299 299 299 299 300 300 300 300 300 299 299 299 298 298 298 297 296 295 294 293 293 292 291 290 288 285 283 281 279 277
280 279 278 278 278 277 275 273 272 271 272 273 274 274 275 275 276 276 277 279 280 281 282 282 282 283 284 286 287 289 290 291 290 290 290 290 290 290 290 290 291 291 292 292 293 294 295 296 297 298 299 299 299 299 299 299 299 299 299 299 299 299 299 299 299 298 298 298 297 297 296 295 295 293 292 291 290 290 290 289 287 286 284 281 279 277
277 277 276 276 275 273 271 270 269 270 272 273 274 274 275 275 275 276 278 279 280 281 282 282 283 283 285 286 288 289 290 290 290 290 290 290 290 290 290 290 290 290 291 292 293 294 295 296 297 298 298 299 299 299 299 299 299 299 299 299 299 299 298 298 298 297 297 296 296 296 295 294 294 293 291 290 289 288 288 287 286 285 284 282 280 277
274 274 273 273 271 269 268 268 269 270 272 273 273 274 274 275 276 277 279 280 281 281 282 282 283 285 286 287 288 289 290 290 290 290 290 290 290 290 290 290 290 290 291 292 293 294 295 296 297 297 298 298 298 298 298 298 298 298 299 299 299 299 298 297 297 296 296 296 295 295 295 294 294 293 292 291 289 288 287 286 285 284 284 282 280 278
271 270 269 268 267 266 266 267 269 270 271 272 273 273 274 276 278 280 281 282 282 282 282 283 285 286 287 288 289 290 290 290 290 290 290 290 290 290 290 290 290 291 291 292 293 294 295 296 296 297 297 297 297 297 297 297 297 298 298 298 298 298 297 297 297 296 296 295 295 295 295 294 294 294 293 292 291 289 288 286 285 284 283 282 281 279
267 265 264 263 263 264 265 267 269 270 271 271 272 273 274 277 279 282 284 285 284 284 284 285 286 287 289 290 290 291 291 291 291 291 291 291 291 291 291 290 291 291 292 293 294 294 295 296 296 296 296 296 296 296 296 296 297 297 297 297 297 297 297 296 296 296 295 295 295 295 295 295 295 294 294 293 293 291 290 288 287 285 284 283 281 280
262 260 260 260 262 263 265 267 269 269 270 271 272 274 275 278 280 282 284 285 286 286 287 288 288 288 289 290 291 291 291 291 291 291 291 291 291 291 291 291 291 291 292 293 294 294 295 295 295 295 295 295 295 295 295 296 296 296 296 297 297 296 296 296 295 295 295 295 295 295 295 295 294 295 294 294 294 293 292 291 289 288 286 284 282 281
257 256 257 260 262 264 266 267 268 269 271 272 273 275 277 279 280 281 283 284 286 287 288 289 289 289 289 289 290 291 291 291 291 290 290 290 290 290 290 290 291 291 292 293 293 294 294 294 294 294 294 294 294 294 295 295 295 296 296 296 296 295 295 295 295 294 294 294 294 294 294 294 294 294 294 294 294 293 293 292 292 290 289 287 285 283
254 255 257 260 263 266 267 269 269 270 272 273 275 276 278 279 280 281 282 283 284 286 287 289 289 290 290 289 289 289 290 290 289 289 289 289 289 289 289 289 289 290 290 291 292 293 293 293 293 293 294 294 294 294 294 295 295 295 295 295 294 294 294 294 294 293 293 293 293 293 293 293 293 293 293 293 293 293 293 293 292 292 291 289 288 286
253 255 258 261 264 267 269 270 271 272 273 275 276 277 278 279 280 280 281 282 283 284 286 287 289 289 290 290 289 289 288 288 288 288 287 287 287 287 287 288 288 288 289 290 291 291 292 292 293 293 293 293 294 294 294 294 294 294 294 294 294 294 293 293 293 293 292 292 292 292 292 292 292 292 292 292 292 292 292 292 291 291 291 290 289 288
254 257 260 263 265 267 269 270 272 273 274 276 277 278 279 280 280 280 281 281 282 283 285 286 287 288 288 288 288 288 287 286 286 286 286 286 286 286 287 287 288 288 289 290 291 291 292 292 293 293 293 293 293 294 294 294 294 294 293 293 293 293 293 292 292 292 292 292 291 291 291 291 291 291 290 290 290 290 290 290 290 290 289 289 289 288
256 259 262 264 266 267 269 271 272 274 275 276 278 279 280 281 281 282 282 282 283 283 284 285 286 286 286 286 286 286 286 285 285 285 285 285 285 285 286 287 288 289 290 291 292 292 292 293 293 293 293 293 294 294 294 294 294 293 293 293 292 292 292 292 292 291 291 291 291 291 291 291 290 290 290 290 289 289 289 288 288 288 287 287 287 287
259 261 263 265 266 268 270 271 273 274 275 277 278 279 280 281 282 283 284 284 284 284 285 285 285 285 285 285 286 285 285 285 285 285 285 285 285 285 286 286 287 288 289 290 291 291 292 292 292 292 293 293 293 293 293 293 293 293 292 292 292 292 291 291 291 291 291 291 291 291 291 291 291 291 290 290 289 289 288 287 287 286 286 285 285 285
262 263 265 266 268 270 272 273 274 275 276 277 278 279 280 281 282 283 284 285 285 285 285 285 285 285 284 284 285 285 285 285 285 285 285 285 285 285 285 286 286 287 288 289 290 290 290 291 291 291 291 292 292 292 292 292 292 292 292 291 291 291 291 291 291 291 292 292 292 292 292 292 292 292 291 291 290 289 288 287 286 286 285 284 284 283
264 266 267 269 271 272 274 274 275 276 277 278 279 279 280 281 282 283 283 284 284 285 285 285 285 285 284 284 284 284 285 285 285 285 285 285 285 285 285 286 286 287 287 288 288 288 289 289 289 290 290 290 291 291 291 291 291 290 290 290 290 290 290 290 291 291 292 292 293 293 293 293 293 293 292 292 291 290 289 288 287 286 285 284 283 282
267 269 270 272 273 274 275 275 276 276 277 278 279 280 281 281 282 282 283 283 284 284 285 284 284 284 284 284 283 283 284 284 284 285 285 285 285 285 286 286 286 287 287 287 288 288 288 288 288 289 289 289 289 289 289 289 289 289 289 289 289 289 289 290 290 291 292 293 293 293 294 294 294 293 293 292 292 291 290 289 288 287 285 284 283 282
270 271 272 273 274 274 274 275 276 277 278 279 280 281 281 282 283 283 283 284 284 284 284 284 283 283 283 283 283 283 283 283 284 284 285 285 285 285 286 286 287 287 287 287 287 287 288 288 288 287 287 288 288 288 288 288 288 288 288 288 288 288 289 289 290 291 292 292 293 293 294 294 294 293 293 292 292 291 290 289 288 287 286 284 283 282
272 272 273 274 273 273 274 275 277 278 279 280 281 282 282 283 283 284 284 285 284 284 284 283 283 283 283 283 282 282 283 283 283 283 284 284 285 285 286 286 287 287 287 287 287 287 287 287 287 287 286 286 287 287 287 287 287 287 288 288 288 288 289 289 290 290 291 292 292 293 293 293 293 293 292 292 291 290 289 288 287 286 285 284 283 282
272 273 274 274 274 274 275 276 278 280 281 282 283 283 284 284 284 284 285 285 285 285 284 284 283 283 283 283 283 283 283 283 283 283 284 284 285 285 285 286 287 287 287 287 287 287 286 286 286 286 286 286 286 286 286 286 287 287 288 288 288 289 289 289 290 290 290 291 291 291 292 292 292 292 291 291 290 290 289 288 287 286 285 284 283 282
273 273 274 275 275 276 277 279 281 283 284 285 286 286 286 285 285 285 286 286 285 285 285 284 284 284 284 284 285 285 285 284 284 284 284 285 285 285 286 286 286 286 286 286 286 286 286 285 285 285 285 285 285 286 286 287 287 288 288 289 289 289 289 290 290 290 290 290 290 290 290 290 290 290 290 290 290 289 289 288 287 286 285 284 283 282
273 274 275 276 277 279 281 283 284 286 287 287 288 288 287 287 287 287 287 286 286 286 286 286 286 285 286 286 286 286 286 285 285 285 285 285 285 285 285 285 285 285 285 285 285 285 285 285 285 285 285 285 285 286 286 287 287 288 288 289 289 289 290 290 290 290 290 290 290 290 290 290 289 289 289 289 289 289 288 288 287 286 286 285 284 283
274 275 276 278 280 282 284 286 287 289 289 289 290 289 289 289 289 289 288 288 287 287 287 287 286 286 286 287 287 286 285 285 285 285 285 284 285 285 285 285 285 285 284 284 285 285 285 285 285 285 285 285 286 286 287 287 287 288 288 289 289 289 290 290 290 291 291 290 290 290 290 289 289 289 289 288 288 288 288 288 287 287 286 285 284 283
275 277 279 281 283 285 287 288 289 290 290 291 291 290 290 290 290 290 289 289 288 288 288 287 287 286 286 286 285 285 284 284 284 284 284 284 285 285 285 285 285 285 285 285 285 285 285 285 285 285 285 286 286 286 287 287 288 288 288 288 289 289 290 290 290 291 291 291 291 290 290 289 289 288 288 288 288 288 288 287 287 287 286 285 285 284
277 279 281 283 285 286 288 289 289 290 291 291 291 291 291 291 291 291 290 290 289 289 288 287 287 287 287 286 286 285 285 285 285 285 286 286 286 286 285 285 285 285 285 285 285 285 286 285 285 285 285 286 286 287 287 287 288 288 288 288 288 289 289 290 290 291 291 291 291 290 290 289 289 289 288 288 287 287 287 287 286 286 286 285 285 284
278 280 282 283 285 286 287 288 289 290 290 291 291 292 292 292 293 292 291 290 290 290 289 288 288 288 288 288 288 287 287 287 287 288 288 288 288 287 286 286 286 285 285 285 286 286 286 286 285 285 285 286 286 286 287 287 288 288 288 288 288 289 289 289 290 290 290 290 290 290 290 290 289 289 288 288 287 287 286 286 286 286 286 285 285 284
276 278 280 282 284 285 286 287 288 289 290 291 291 292 292 292 293 292 292 291 291 290 290 290 289 289 290 290 290 290 290 290 290 290 290 290 289 288 287 286 286 286 286 286 286 286 287 286 286 286 286 286 286 286 287 287 288 288 288 289 289 289 290 290 290 290 290 290 290 290 290 290 290 289 289 288 288 287 287 286 286 286 286 286 285 285
274 276 278 280 282 284 285 286 287 288 289 290 291 291 291 292 292 291 291 291 291 291 290 290 291 291 291 292 292 292 292 292 292 292 292 291 290 288 287 287 286 286 286 285 285 285 286 286 286 286 286 286 287 287 287 288 289 289 289 290 290 290 291 291 290 290 290 289 289 289 289 290 290 289 289 289 288 288 287 287 287 286 286 286 285 284
273 275 277 280 282 283 285 286 287 288 289 289 290 290 290 290 291 291 291 291 291 291 291 291 292 292 293 293 293 293 292 292 293 293 292 291 290 288 287 287 286 286 285 285 284 284 283 284 284 285 286 286 286 287 288 289 289 290 290 290 291 291 291 291 291 291 290 289 289 289 289 289 289 289 289 289 289 289 288 288 287 287 286 286 285 284
274 277 279 281 282 284 286 287 288 289 289 290 290 290 290 290 291 291 292 292 292 293 293 293 293 294 294 294 294 293 293 293 293 292 291 290 289 288 287 286 285 284 284 284 283 283 282 281 282 283 284 285 285 286 287 288 289 289 290 291 291 292 292 292 292 292 291 290 290 290 289 289 289 289 290 290 290 290 290 289 289 288 287 286 285 284
277 279 281 283 285 286 287 289 289 290 291 291 291 291 291 292 292 292 292 292 293 293 294 294 295 295 295 296 296 295 294 293 293 292 291 289 288 287 286 285 284 283 283 282 282 282 281 281 281 281 282 284 285 286 287 288 289 289 290 291 292 292 293 293 293 293 292 292 291 291 290 290 290 290 290 290 290 290 290 290 290 289 288 287 286 284
278 280 282 284 286 287 288 289 290 291 291 292 292 292 292 292 292 292 292 292 293 293 293 294 295 295 296 296 296 296 295 294 293 292 290 288 287 286 285 284 283 283 282 282 281 281 281 281 281 281 281 283 285 286 287 288 289 290 291 291 292 292 293 293 293 293 293 293 292 292 291 291 291 291 291 291 291 291 291 290 290 290 289 288 287 285
279 280 282 283 284 285 286 287 288 289 289 290 290 290 290 290 291 291 291 291 292 292 293 293 294 295 296 296 296 296 295 294 293 292 290 288 287 286 285 284 283 283 282 281 281 280 280 280 281 281 281 282 284 286 287 288 289 290 290 291 292 292 292 293 293 293 292 292 292 292 292 292 292 292 291 291 291 291 291 291 291 290 289 289 288 286
279 280 281 281 282 283 284 284 285 286 286 287 287 288 288 289 290 290 291 291 292 292 293 294 294 295 296 296 296 296 295 294 293 292 290 289 287 286 285 284 283 282 282 281 280 280 280 280 281 281 282 282 283 284 286 288 289 290 290 291 291 292 292 292 292 291 291 291 291 291 292 292 292 292 291 291 291 291 291 291 290 290 290 289 288 287
279 280 281 281 282 282 283 284 284 285 285 286 287 287 288 289 289 290 291 292 292 293 294 294 295 296 296 297 296 296 295 294 293 292 291 289 288 287 285 284 283 282 282 281 280 280 280 280 280 281 282 282 283 284 285 286 288 289 290 290 291 292 291 291 291 290 290 290 290 290 291 291 291 291 291 291 291 291 291 291 290 290 290 289 289 288
280 281 281 282 283 283 284 284 285 285 286 286 287 287 288 289 289 290 291 292 292 293 294 295 295 296 296 297 296 296 295 294 293 292 290 289 288 287 285 284 282 282 281 281 280 280 280 280 280 280 280 282 283 284 285 286 287 288 289 290 291 291 291 290 290 289 289 289 289 289 290 290 290 291 291 291 291 291 290 290 290 290 290 290 289 289
282 282 283 283 284 284 285 285 286 286 286 287 287 287 288 288 289 289 290 290 291 292 293 294 295 295 296 296 296 295 294 293 292 291 290 289 288 286 285 283 282 281 281 280 280 280 280 280 280 280 280 280 281 283 284 285 286 287 288 289 290 290 290 290 289 289 289 289 289 289 290 290 290 290 290 290 290 290 290 290 290 290 290 289 289 288
283 284 284 285 286 286 287 287 287 287 287 288 287 288 288 288 288 288 288 289 289 290 291 292 293 295 296 296 296 295 294 293 292 291 290 289 287 286 284 282 281 280 280 280 279 279 279 279 279 280 280 280 281 282 284 285 285 286 287 287 288 288 289 289 289 289 289 289 289 289 290 290 290 290 290 290 290 290 290 290 290 289 289 289 288 288
284 285 286 287 287 288 288 289 289 289 289 289 289 288 288 288 288 288 288 288 289 290 290 292 293 295 296 297 296 295 295 294 293 292 290 289 287 285 284 282 281 280 279 278 278 278 278 278 279 279 280 280 282 283 284 285 285 285 286 286 286 287 287 288 288 288 288 289 289 290 290 290 290 290 290 291 291 291 290 290 290 289 289 289 289 288
285 286 287 288 289 289 290 290 290 290 290 290 289 289 289 289 288 288 288 289 290 290 291 293 294 295 296 297 296 296 295 294 293 292 290 289 287 285 283 281 280 279 278 277 277 277 277 278 278 279 280 281 282 284 284 285 285 285 286 286 286 286 286 287 287 288 288 289 289 290 290 290 290 290 291 291 291 291 291 291 290 290 289 289 289 288
286 287 288 289 290 291 291 291 291 291 290 290 289 289 289 289 289 289 289 289 290 290 291 292 294 295 296 297 296 295 295 294 293 292 290 288 287 285 283 281 279 278 277 276 275 275 275 276 277 278 280 281 283 284 284 284 285 285 286 286 286 286 286 286 287 288 288 289 289 290 290 290 290 291 291 291 291 291 291 291 291 290 290 289 288 288
286 287 288 288 289 289 290 290 290 289 289 289 288 288 288 289 289 288 288 288 289 290 291 292 294 295 295 296 295 295 294 293 293 291 290 289 287 285 282 280 278 277 276 275 274 274 274 274 276 278 280 282 283 284 285 285 285 285 285 286 286 286 286 285 286 287 288 289 289 290 290 290 291 291 292 292 292 292 292 291 291 290 290 289 289 288
286 286 286 286 287 287 287 287 287 287 287 287 287 287 287 288 288 287 287 288 288 289 290 292 293 294 294 294 294 293 292 292 291 291 290 288 287 284 282 280 278 276 275 274 274 273 274 274 275 277 279 281 283 284 285 285 285 285 285 286 287 287 286 286 286 286 287 288 289 290 290 291 291 292 292 293 293 293 293 293 292 291 290 290 289 288
286 286 285 285 285 285 285 285 285 285 285 285 285 286 286 286 286 286 287 287 288 289 290 292 293 294 294 293 293 292 290 290 289 288 288 287 286 284 282 280 279 277 275 274 273 273 274 275 276 278 279 281 283 284 285 285 285 285 285 286 286 286 286 286 286 287 288 288 289 290 290 291 292 292 293 293 294 294 294 294 293 292 291 290 289 288
290 290 289 288 287 286 286 286 286 286 286 286 286 286 286 286 286 286 287 287 288 289 291 292 293 293 293 293 292 290 289 288 287 286 285 285 284 283 282 280 279 278 276 275 274 273 274 275 277 279 280 282 283 283 284 284 285 285 285 286 286 286 286 286 287 287 288 289 289 290 290 291 291 292 293 293 294 294 294 294 293 292 291 290 289 288
295 294 293 292 291 290 289 289 289 289 289 289 289 289 289 288 288 288 288 288 289 290 291 292 292 293 292 292 291 290 288 287 286 284 283 282 282 281 280 279 279 278 276 276 275 275 275 276 278 280 281 282 283 283 283 284 284 285 286 286 285 285 285 286 287 288 288 289 290 290 291 291 291 292 292 293 293 294 293 293 292 292 291 290 289 288
296 295 294 294 293 292 292 291 291 291 291 292 292 291 291 291 290 290 290 290 290 291 291 291 292 291 291 290 290 289 288 287 285 283 282 281 280 279 278 278 277 277 277 276 276 276 277 278 279 282 283 284 284 284 284 284 285 285 285 285 285 285 285 286 287 287 288 289 290 290 291 291 292 292 293 293 294 293 293 292 291 290 290 289 289 289
293 292 292 291 291 291 291 291 291 291 292 292 292 292 292 292 291 291 291 291 291 291 291 290 290 290 290 289 289 288 287 286 285 283 281 280 279 278 276 276 275 275 275 275 276 276 277 278 280 283 285 285 285 284 284 284 284 285 285 285 285 285 285 286 286 287 288 289 290 291 291 292 293 293 294 294 294 294 293 292 290 289 288 288 288 288
Height
3095 3094 3094 3093 3092 3091 3091 3091 3090 3090 3090 3089 3089 3089 3088 3088 3088 3088 3088 3088 3087 3087 3087 3087 3087 3087 3087 3088 3088 3088 3088 3088 3087 3087 3087 3087 3086 3086 3086 3085 3085 3085 3085 3085 3084 3084 3083 3083 3082 3082 3081 3081 3080 3080 3080 3079 3079 3079 3078 3078 3077 3077 3076 3076 3075 3075 3075 3074 3073 3073 3073 3072 3072 3071 3070 3070 3070 3069 3069 3069 3068 3068 3067 3067 3067 3067
3093 3092 3092 3091 3090 3090 3089 3089 3089 3088 3088 3088 3087 3087 3087 3087 3086 3086 3086 3086 3086 3086 3086 3086 3086 3086 3086 3086 3087 3086 3086 3086 3086 3086 3085 3085 3085 3085 3085 3084 3084 3084 3083 3083 3083 3082 3082 3081 3081 3080 3080 3080 3079 3079 3078 3078 3078 3077 3077 3077 3076 3076 3075 3075 3075 3074 3073 3073 3072 3072 3072 3071 3071 3070 3070 3069 3069 3068 3068 3068 3067 3067 3067 3066 3066 3066
3091 3090 3090 3089 3088 3088 3087 3087 3087 3086 3086 3086 3086 3085 3085 3085 3085 3085 3085 3085 3085 3085 3085 3085 3085 3085 3085 3085 3085 3085 3085 3085 3085 3084 3084 3084 3084 3084 3083 3083 3083 3082 3082 3082 3081 3081 3080 3080 3080 3079 3079 3078 3078 3078 3077 3077 3077 3076 3076 3075 3075 3075 3074 3074 3073 3073 3072 3072 3071 3071 3070 3070 3070 3069 3069 3068 3068 3067 3067 3067 3066 3066 3066 3065 3065 3065
3089 3088 3087 3087 3086 3086 3086 3085 3085 3085 3085 3084 3084 3084 3084 3084 3084 3084 3084 3084 3084 3084 3083 3083 3083 3083 3083 3083 3084 3084 3084 3083 3083 3083 3083 3082 3082 3082 3082 3082 3081 3081 3081 3080 3080 3080 3079 3079 3078 3078 3077 3077 3077 3076 3076 3076 3075 3075 3075 3074 3074 3074 3073 3073 3072 3072 3071 3071 3070 3070 3070 3069 3069 3068 3068 3067 3067 3066 3066 3065 3065 3065 3065 3065 3065 3064
3086 3085 3085 3084 3084 3084 3084 3084 3083 3083 3083 3083 3083 3083 3083 3083 3083 3082 3082 3082 3082 3082 3082 3082 3082 3082 3082 3082 3082 3082 3082 3082 3081 3081 3081 3081 3081 3080 3080 3080 3080 3080 3079 3079 3079 3078 3078 3077 3077 3076 3076 3076 3075 3075 3075 3075 3074 3074 3073 3073 3073 3072 3072 3071 3071 3070 3070 3070 3069 3069 3068 3068 3068 3067 3067 3066 3066 3065 3065 3065 3064 3064 3064 3064 3063 3063
3084 3083 3083 3082 3082 3082 3082 3082 3082 3082 3081 3081 3081 3081 3081 3081 3081 3081 3081 3081 3081 3081 3081 3081 3081 3081 3081 3081 3080 3080 3080 3080 3080 3080 3079 3079 3079 3079 3079 3079 3079 3078 3078 3077 3077 3077 3076 3076 3075 3075 3075 3074 3074 3074 3073 3073 3073 3072 3072 3072 3071 3071 3070 3070 3070 3069 3069 3068 3068 3067 3067 3067 3066 3066 3065 3065 3065 3064 3064 3063 3063 3063 3062 3062 3062 3062
3082 3081 3081 3081 3081 3081 3081 3080 3080 3080 3080 3080 3080 3080 3080 3080 3080 3080 3080 3080 3080 3080 3080 3080 3080 3080 3079 3079 3079 3079 3079 3079 3078 3078 3078 3078 3078 3077 3077 3077 3077 3077 3076 3076 3075 3075 3075 3074 3074 3074 3073 3073 3073 3072 3072 3072 3071 3071 3070 3070 3070 3070 3069 3069 3068 3068 3067 3067 3066 3066 3066 3065 3065 3065 3064 3064 3063 3063 3063 3062 3062 3061 3061 3061 3061 3061
3080 3079 3079 3079 3079 3079 3079 3079 3079 3079 3079 3079 3079 3079 3079 3079 3079 3079 3078 3078 3078 3078 3078 3078 3078 3078 3078 3078 3078 3077 3077 3077 3077 3076 3076 3076 3076 3076 3076 3075 3075 3075 3075 3074 3074 3074 3073 3073 3072 3072 3072 3071 3071 3071 3070 3070 3070 3070 3069 3069 3069 3068 3068 3067 3067 3066 3066 3065 3065 3065 3064 3064 3063 3063 3063 3062 3062 3062 3061 3061 3060 3060 3060 3060 3060 3060
3078 3078 3077 3077 3077 3077 3077 3077 3077 3077 3078 3078 3077 3077 3077 3077 3077 3077 3077 3077 3077 3077 3077 3077 3077 3077 3076 3076 3076 3076 3075 3075 3075 3075 3075 3074 3074 3074 3074 3074 3074 3073 3073 3073 3072 3072 3072 3071 3071 3070 3070 3070 3070 3069 3069 3069 3068 3068 3068 3067 3067 3067 3066 3066 3065 3065 3064 3064 3063 3063 3063 3062 3062 3061 3061 3061 3060 3060 3060 3060 3059 3059 3059 3058 3058 3058
3076 3076 3076 3076 3076 3076 3076 3076 3076 3076 3076 3076 3076 3076 3076 3076 3075 3075 3075 3075 3075 3075 3075 3075 3075 3075 3075 3074 3074 3074 3074 3074 3073 3073 3073 3073 3072 3072 3072 3072 3072 3072 3071 3071 3071 3070 3070 3070 3069 3069 3069 3069 3068 3068 3068 3067 3067 3066 3066 3066 3065 3065 3065 3064 3064 3063 3063 3062 3062 3061 3061 3060 3060 3060 3060 3059 3059 3059 3058 3058 3058 3058 3057 3057 3057 3057
3075 3075 3075 3075 3075 3075 3075 3075 3075 3075 3075 3075 3075 3075 3075 3075 3074 3074 3074 3074 3073 3073 3074 3074 3074 3074 3074 3073 3072 3072 3072 3072 3072 3071 3071 3071 3071 3071 3070 3070 3070 3070 3070 3070 3069 3069 3069 3068 3068 3068 3067 3067 3067 3066 3066 3066 3065 3065 3065 3064 3064 3064 3063 3063 3062 3062 3061 3061 3060 3060 3059 3059 3059 3058 3058 3057 3057 3057 3057 3056 3056 3056 3056 3055 3055 3055
3073 3073 3073 3073 3073 3073 3073 3073 3074 3074 3073 3073 3073 3073 3073 3073 3073 3073 3073 3072 3072 3072 3072 3072 3072 3072 3072 3071 3071 3070 3070 3070 3070 3070 3070 3070 3070 3069 3069 3069 3069 3068 3068 3068 3068 3067 3067 3066 3066 3066 3066 3065 3065 3065 3065 3064 3064 3064 3063 3063 3062 3062 3061 3061 3060 3060 3060 3059 3059 3058 3058 3057 3057 3057 3056 3056 3055 3055 3055 3055 3054 3054 3054 3054 3054 3054
3072 3072 3072 3072 3072 3071 3072 3072 3072 3072 3072 3072 3072 3072 3072 3072 3072 3072 3072 3071 3071 3070 3070 3070 3070 3070 3070 3070 3070 3069 3069 3069 3069 3069 3068 3068 3068 3068 3067 3067 3067 3067 3067 3066 3066 3066 3065 3065 3065 3065 3064 3064 3064 3063 3063 3063 3062 3062 3062 3061 3061 3060 3060 3060 3059 3059 3058 3058 3057 3057 3056 3056 3055 3055 3055 3054 3054 3054 3053 3053 3053 3052 3052 3052 3052 3052
3070 3070 3070 3070 3070 3070 3070 3070 3070 3070 3070 3070 3070 3070 3070 3070 3070 3070 3070 3070 3070 3069 3069 3069 3069 3068 3068 3068 3068 3068 3068 3067 3067 3067 3067 3067 3067 3066 3066 3066 3065 3065 3065 3065 3065 3064 3064 3063 3063 3063 3063 3062 3062 3062 3061 3061 3061 3060 3060 3060 3059 3059 3058 3058 3057 3057 3056 3056 3055 3055 3055 3054 3054 3054 3053 3053 3052 3052 3052 3051 3051 3051 3050 3050 3050 3050
3069 3069 3069 3069 3069 3069 3069 3069 3069 3069 3069 3069 3069 3069 3069 3069 3069 3069 3069 3069 3068 3068 3068 3067 3067 3067 3067 3066 3066 3066 3066 3066 3066 3066 3066 3066 3065 3065 3065 3064 3064 3064 3064 3063 3063 3062 3062 3062 3061 3061 3061 3060 3060 3060 3060 3059 3059 3059 3058 3058 3057 3057 3057 3056 3056 3055 3055 3055 3054 3054 3053 3053 3052 3052 3052 3051 3051 3050 3050 3050 3050 3049 3049 3049 3049 3048
3068 3068 3068 3068 3068 3068 3068 3067 3067 3067 3067 3067 3067 3067 3067 3067 3067 3067 3067 3067 3067 3066 3066 3066 3066 3066 3065 3065 3065 3065 3065 3065 3064 3064 3064 3064 3064 3064 3063 3063 3062 3062 3062 3061 3061 3060 3060 3060 3060 3059 3059 3059 3058 3058 3058 3058 3057 3057 3056 3056 3056 3055 3055 3055 3054 3054 3053 3053 3052 3052 3052 3051 3051 3050 3050 3050 3050 3049 3049 3048 3048 3048 3047 3047 3047 3047
3066 3066 3067 3067 3067 3066 3066 3066 3066 3066 3066 3066 3066 3066 3065 3065 3065 3065 3065 3065 3065 3065 3065 3065 3065 3064 3064 3064 3063 3063 3063 3063 3063 3062 3062 3062 3062 3062 3061 3061 3061 3061 3060 3060 3060 3059 3059 3058 3058 3057 3057 3057 3057 3056 3056 3056 3055 3055 3055 3054 3054 3054 3053 3053 3052 3052 3051 3051 3051 3050 3050 3050 3049 3049 3049 3048 3048 3048 3047 3047 3047 3046 3046 3046 3045 3045
3065 3065 3065 3065 3065 3065 3065 3065 3065 3065 3065 3065 3065 3064 3064 3064 3064 3063 3063 3063 3063 3063 3063 3063 3063 3063 3063 3063 3062 3062 3061 3061 3061 3061 3060 3060 3060 3060 3060 3060 3059 3059 3059 3058 3058 3057 3057 3056 3056 3056 3055 3055 3055 3055 3054 3054 3054 3053 3053 3053 3052 3052 3051 3051 3050 3050 3050 3050 3049 3049 3048 3048 3048 3047 3047 3047 3046 3046 3045 3045 3045 3045 3044 3044 3044 3043
3064 3064 3064 3064 3064 3064 3063 3063 3063 3063 3063 3063 3063 3063 3062 3062 3062 3062 3061 3061 3061 3061 3061 3061 3061 3061 3061 3061 3061 3060 3060 3060 3059 3059 3059 3059 3059 3059 3058 3058 3057 3057 3057 3057 3056 3056 3055 3055 3055 3054 3054 3054 3053 3053 3052 3052 3052 3051 3051 3051 3050 3050 3050 3049 3049 3049 3048 3048 3047 3047 3046 3046 3046 3045 3045 3045 3045 3044 3044 3044 3043 3043 3043 3042 3042 3042
3062 3062 3062 3062 3062 3062 3062 3061 3061 3061 3061 3061 3061 3061 3060 3060 3060 3060 3060 3060 3060 3060 3060 3060 3060 3059 3059 3059 3059 3059 3058 3058 3058 3057 3057 3057 3057 3057 3056 3056 3055 3055 3055 3055 3054 3054 3054 3053 3053 3052 3052 3052 3051 3051 3050 3050 3050 3050 3049 3049 3049 3048 3048 3048 3047 3047 3046 3046 3045 3045 3045 3044 3044 3044 3043 3043 3043 3042 3042 3042 3041 3041 3041 3040 3040 3040
3060 3060 3060 3061 3061 3060 3060 3060 3060 3060 3060 3060 3060 3059 3059 3059 3058 3058 3058 3058 3058 3058 3058 3058 3058 3058 3057 3057 3057 3057 3057 3056 3056 3056 3055 3055 3055 3055 3054 3054 3054 3053 3053 3053 3052 3052 3052 3051 3051 3050 3050 3050 3050 3049 3049 3048 3048 3048 3047 3047 3047 3046 3046 3046 3045 3045 3045 3044 3044 3043 3043 3042 3042 3041 3041 3041 3040 3040 3040 3040 3039 3039 3039 3039 3038 3038
3059 3059 3059 3060 3060 3059 3059 3059 3059 3058 3058 3058 3058 3057 3057 3057 3057 3057 3056 3056 3056 3056 3056 3056 3056 3056 3056 3055 3055 3055 3055 3055 3055 3054 3054 3053 3053 3053 3052 3052 3052 3051 3051 3051 3050 3050 3050 3049 3049 3048 3048 3048 3047 3047 3047 3046 3046 3045 3045 3045 3045 3044 3044 3044 3043 3043 3043 3042 3042 3041 3041 3040 3040 3039 3039 3039 3038 3038 3038 3037 3037 3037 3036 3036 3036 3036
3057 3058 3058 3058 3058 3058 3058 3057 3057 3057 3056 3056 3056 3056 3055 3055 3055 3055 3055 3055 3055 3055 3055 3054 3054 3054 3054 3054 3054 3053 3053 3053 3053 3052 3052 3051 3051 3051 3050 3050 3050 3049 3049 3049 3048 3048 3048 3047 3047 3046 3046 3045 3045 3045 3045 3044 3044 3044 3043 3043 3042 3042 3042 3041 3041 3041 3041 3040 3040 3039 3039 3038 3038 3037 3037 3036 3036 3035 3035 3035 3035 3035 3034 3034 3034 3034
3056 3056 3056 3056 3056 3056 3056 3055 3055 3055 3055 3055 3054 3054 3054 3054 3054 3054 3054 3053 3053 3053 3053 3053 3052 3052 3052 3052 3052 3051 3051 3051 3050 3050 3050 3050 3049 3049 3049 3048 3048 3047 3047 3046 3046 3046 3045 3045 3045 3044 3044 3043 3043 3043 3042 3042 3042 3041 3041 3040 3040 3040 3040 3039 3039 3039 3038 3038 3038 3037 3037 3036 3035 3035 3035 3034 3034 3033 3033 3033 3032 3032 3032 3032 3031 3031
3055 3055 3055 3055 3055 3055 3054 3054 3054 3053 3053 3053 3053 3052 3052 3052 3052 3052 3052 3052 3052 3051 3051 3051 3050 3050 3050 3050 3050 3049 3049 3049 3048 3048 3048 3048 3047 3047 3046 3046 3046 3045 3045 3045 3044 3044 3044 3043 3042 3042 3041 3041 3041 3040 3040 3040 3040 3039 3039 3038 3038 3038 3037 3037 3036 3036 3036 3035 3035 3035 3034 3034 3033 3033 3032 3032 3031 3031 3030 3030 3030 3030 3030 3029 3029 3029
3053 3053 3053 3053 3053 3053 3053 3052 3052 3052 3051 3051 3051 3051 3050 3050 3050 3050 3050 3050 3050 3050 3049 3049 3049 3048 3048 3048 3047 3047 3047 3047 3046 3046 3046 3046 3045 3045 3044 3044 3044 3043 3042 3042 3042 3042 3041 3041 3040 3040 3039 3039 3039 3038 3038 3038 3037 3037 3036 3036 3036 3035 3035 3035 3034 3034 3033 3033 3033 3032 3032 3031 3031 3030 3030 3030 3029 3029 3028 3028 3027 3027 3027 3027 3026 3026
3052 3052 3052 3052 3052 3051 3051 3051 3050 3050 3050 3050 3050 3049 3049 3049 3049 3049 3048 3048 3048 3048 3048 3047 3047 3047 3046 3046 3046 3045 3045 3045 3045 3044 3044 3044 3043 3043 3042 3042 3041 3041 3040 3040 3040 3040 3039 3039 3038 3037 3037 3036 3036 3036 3036 3035 3035 3035 3034 3034 3033 3033 3032 3032 3031 3031 3031 3030 3030 3030 3029 3029 3028 3028 3028 3027 3027 3026 3026 3025 3025 3025 3025 3024 3024 3024
3050 3050 3050 3050 3050 3050 3050 3049 3049 3049 3049 3048 3048 3047 3047 3047 3047 3047 3047 3046 3046 3046 3046 3045 3045 3045 3045 3044 3044 3043 3043 3043 3043 3042 3042 3041 3041 3040 3040 3040 3039 3039 3038 3037 3037 3037 3037 3036 3036 3035 3035 3034 3034 3034 3033 3033 3033 3032 3032 3031 3031 3030 3030 3030 3029 3029 3028 3028 3027 3027 3026 3026 3026 3025 3025 3025 3025 3024 3024 3023 3023 3022 3022 3022 3021 3021
3049 3049 3049 3049 3048 3048 3048 3048 3047 3047 3047 3046 3046 3046 3045 3045 3045 3045 3045 3045 3044 3044 3044 3044 3044 3043 3043 3042 3042 3041 3041 3041 3040 3040 3040 3039 3039 3038 3038 3037 3037 3036 3036 3035 3035 3035 3035 3034 3034 3033 3032 3032 3031 3031 3031 3030 3030 3030 3029 3029 3028 3028 3028 3027 3027 3026 3026 3025 3025 3024 3024 3023 3023 3023 3022 3022 3022 3021 3021 3021 3020 3020 3020 3019 3019 3019
3047 3047 3047 3047 3047 3046 3046 3046 3046 3045 3045 3045 3045 3044 3044 3044 3043 3043 3043 3043 3043 3042 3042 3042 3042 3041 3041 3040 3040 3039 3038 3038 3038 3038 3037 3037 3037 3036 3035 3035 3035 3034 3034 3033 3033 3032 3032 3031 3031 3030 3030 3030 3029 3029 3028 3028 3028 3027 3027 3026 3026 3025 3025 3025 3025 3024 3023 3023 3022 3021 3021 3020 3020 3020 3020 3019 3019 3019 3019 3018 3018 3018 3017 3017 3017 3016
3046 3046 3045 3045 3045 3045 3045 3044 3044 3044 3044 3043 3043 3043 3042 3042 3042 3041 3041 3041 3041 3040 3040 3040 3040 3040 3039 3039 3038 3037 3036 3036 3036 3035 3035 3035 3035 3034 3033 3033 3032 3032 3031 3031 3031 3030 3030 3029 3028 3028 3027 3027 3026 3026 3026 3025 3025 3025 3024 3023 3023 3023 3022 3022 3022 3021 3021 3020 3020 3019 3019 3018 3017 3017 3017 3016 3016 3016 3016 3015 3015 3015 3015 3015 3014 3014
3044 3044 3044 3044 3043 3043 3043 3043 3042 3042 3042 3041 3041 3041 3041 3040 3040 3040 3040 3039 3039 3039 3038 3038 3038 3037 3037 3037 3036 3035 3035 3034 3034 3033 3033 3032 3032 3031 3031 3030 3030 3030 3029 3029 3028 3028 3028 3027 3026 3025 3025 3024 3024 3023 3023 3023 3022 3022 3021 3021 3020 3020 3020 3020 3019 3019 3018 3018 3017 3017 3016 3015 3015 3015 3014 3014 3013 3013 3013 3013 3013 3013 3012 3012 3012 3012
3043 3042 3042 3042 3042 3041 3041 3041 3040 3040 3040 3040 3040 3039 3039 3039 3038 3038 3037 3037 3037 3037 3036 3036 3036 3035 3035 3035 3034 3034 3033 3032 3032 3031 3031 3030 3030 3029 3029 3028 3028 3027 3027 3026 3026 3026 3025 3025 3024 3023 3023 3022 3021 3021 3021 3020 3020 3020 3019 3018 3018 3017 3017 3017 3016 3016 3015 3015 3015 3014 3014 3013 3013 3012 3011 3011 3011 3010 3010 3010 3010 3010 3010 3010 3010 3009
3041 3041 3040 3040 3040 3040 3039 3039 3039 3038 3038 3038 3037 3037 3037 3036 3036 3036 3035 3035 3035 3035 3034 3034 3034 3033 3033 3032 3032 3031 3030 3030 3030 3029 3028 3028 3027 3026 3026 3025 3025 3025 3024 3024 3024 3023 3023 3023 3022 3021 3021 3020 3019 3019 3018 3018 3017 3017 3016 3016 3015 3015 3015 3014 3014 3013 3013 3012 3012 3011 3011 3010 3010 3010 3009 3009 3008 3008 3008 3007 3007 3007 3007 3007 3007 3007
3039 3039 3039 3039 3038 3038 3037 3037 3037 3036 3036 3035 3035 3035 3035 3034 3034 3034 3033 3033 3033 3032 3032 3032 3031 3031 3031 3030 3030 3029 3028 3028 3027 3027 3026 3025 3025 3024 3024 3023 3022 3022 3022 3021 3021 3021 3020 3020 3020 3020 3019 3018 3017 3016 3015 3015 3015 3014 3014 3013 3013 3012 3012 3011 3011 3010 3010 3010 3009 3009 3008 3008 3008 3007 3007 3006 3006 3005 3005 3005 3005 3004 3004 3004 3004 3004
3038 3037 3037 3037 3036 3036 3036 3035 3035 3035 3034 3034 3033 3033 3033 3032 3032 3031 3031 3031 3030 3030 3030 3030 3029 3029 3029 3028 3027 3027 3026 3025 3025 3025 3024 3023 3022 3022 3021 3020 3020 3020 3019 3019 3019 3019 3018 3018 3018 3017 3017 3016 3015 3014 3013 3013 3012 3012 3011 3011 3010 3010 3010 3009 3009 3008 3008 3007 3007 3006 3006 3005 3005 3005 3004 3004 3003 3003 3003 3002 3002 3001 3001 3001 3001 3001
3036 3035 3035 3035 3035 3034 3034 3034 3033 3033 3033 3032 3032 3031 3030 3030 3030 3029 3029 3029 3028 3028 3028 3027 3027 3026 3026 3025 3025 3024 3024 3023 3022 3022 3021 3020 3020 3020 3019 3018 3018 3017 3017 3016 3016 3016 3016 3016 3015 3015 3015 3014 3013 3013 3011 3010 3010 3009 3009 3008 3008 3007 3007 3007 3006 3006 3005 3005 3005 3004 3004 3003 3003 3002 3002 3001 3001 3001 3000 3000 2999 2999 2999 2998 2998 2998
3034 3034 3033 3033 3033 3032 3032 3032 3031 3031 3030 3030 3030 3029 3029 3028 3028 3027 3027 3026 3026 3025 3025 3025 3024 3024 3023 3023 3022 3021 3020 3020 3019 3019 3019 3018 3017 3017 3016 3016 3015 3015 3014 3014 3014 3014 3013 3013 3013 3012 3012 3011 3011 3010 3010 3009 3008 3007 3006 3005 3005 3005 3005 3005 3004 3004 3003 3003 3002 3002 3001 3001 3000 3000 3000 2999 2999 2998 2998 2997 2997 2996 2996 2995 2995 2995
3032 3031 3031 3031 3031 3030 3030 3030 3029 3029 3028 3028 3027 3027 3026 3026 3025 3025 3025 3024 3024 3023 3022 3022 3021 3021 3020 3020 3019 3018 3018 3017 3016 3016 3015 3015 3015 3014 3014 3013 3013 3012 3011 3011 3011 3011 3011 3011 3010 3010 3010 3009 3009 3008 3007 3006 3006 3005 3004 3003 3003 3002 3002 3002 3002 3001 3001 3000 3000 3000 2999 2999 2998 2998 2997 2997 2996 2996 2995 2995 2995 2994 2994 2993 2993 2992
3030 3030 3029 3029 3029 3028 3028 3028 3027 3027 3026 3025 3025 3025 3024 3024 3024 3023 3022 3022 3021 3021 3020 3020 3019 3018 3017 3017 3016 3015 3015 3014 3014 3013 3013 3012 3012 3011 3011 3010 3010 3009 3009 3009 3008 3008 3008 3008 3008 3008 3007 3007 3007 3006 3005 3004 3003 3003 3002 3001 3001 3000 2999 2999 2999 2999 2999 2998 2998 2998 2997 2997 2996 2996 2995 2995 2994 2994 2993 2993 2992 2992 2991 2990 2990 2990
3028 3027 3027 3027 3026 3026 3026 3025 3025 3025 3024 3024 3023 3023 3022 3022 3021 3021 3020 3020 3019 3019 3018 3017 3017 3016 3015 3014 3013 3012 3012 3011 3011 3010 3010 3009 3009 3008 3008 3008 3007 3007 3006 3006 3006 3005 3005 3005 3005 3005 3005 3004 3004 3004 3003 3002 3001 3000 3000 3000 2999 2998 2997 2996 2996 2996 2996 2996 2995 2995 2995 2994 2994 2993 2993 2992 2992 2991 2991 2990 2990 2989 2989 2988 2988 2987
3025 3025 3025 3025 3024 3024 3024 3023 3023 3022 3022 3021 3021 3020 3020 3020 3019 3019 3018 3017 3017 3016 3015 3015 3014 3014 3012 3011 3010 3009 3009 3008 3008 3007 3007 3006 3006 3005 3005 3005 3004 3004 3004 3003 3003 3003 3002 3002 3002 3002 3002 3001 3001 3001 3001 3000 2999 2998 2997 2997 2997 2996 2995 2994 2994 2994 2993 2993 2993 2993 2992 2992 2991 2991 2990 2990 2990 2989 2989 2988 2987 2987 2986 2986 2985 2985
3024 3023 3023 3022 3022 3022 3021 3021 3020 3020 3020 3019 3019 3018 3018 3017 3017 3016 3015 3015 3014 3014 3013 3012 3012 3011 3010 3009 3008 3007 3006 3005 3005 3005 3004 3004 3003 3003 3002 3002 3001 3001 3001 3001 3000 3000 3000 3000 2999 2999 2999 2999 2999 2999 2998 2997 2996 2995 2995 2995 2995 2994 2993 2992 2991 2991 2991 2990 2990 2990 2990 2989 2989 2989 2988 2988 2987 2987 2986 2985 2985 2985 2984 2983 2983 2982
3021 3021 3020 3020 3020 3019 3019 3019 3018 3018 3017 3017 3016 3016 3015 3015 3014 3014 3013 3012 3012 3011 3010 3010 3009 3008 3008 3007 3005 3004 3003 3002 3002 3001 3001 3001 3000 3000 2999 2999 2999 2998 2998 2998 2998 2997 2997 2997 2996 2996 2996 2996 2996 2996 2995 2995 2994 2993 2992 2992 2992 2992 2991 2990 2989 2989 2988 2988 2988 2987 2987 2987 2986 2986 2986 2985 2985 2984 2984 2983 2982 2982 2981 2981 2980 2980
3020 3019 3019 3018 3018 3017 3017 3016 3016 3015 3015 3015 3014 3013 3013 3012 3011 3011 3010 3010 3009 3009 3008 3007 3006 3006 3005 3004 3003 3002 3000 2999 2999 2998 2998 2997 2997 2997 2996 2996 2996 2995 2995 2995 2995 2995 2995 2994 2994 2994 2994 2994 2993 2993 2993 2992 2991 2990 2990 2990 2990 2989 2989 2988 2987 2986 2986 2985 2985 2985 2984 2984 2984 2984 2983 2983 2982 2982 2981 2980 2980 2979 2979 2978 2978 2977
3017 3017 3016 3016 3015 3015 3014 3014 3013 3013 3012 3012 3011 3011 3010 3010 3009 3008 3008 3007 3006 3006 3005 3004 3004 3003 3002 3001 3000 3000 2998 2997 2996 2995 2995 2994 2994 2994 2993 2993 2993 2993 2992 2992 2992 2992 2992 2992 2991 2991 2991 2991 2991 2990 2990 2989 2989 2988 2988 2987 2987 2987 2986 2985 2985 2984 2984 2983 2983 2982 2981 2981 2981 2981 2980 2980 2980 2979 2978 2978 2977 2976 2976 2975 2975 2975
3015 3014 3014 3013 3013 3012 3011 3011 3010 3010 3010 3009 3008 3008 3007 3007 3006 3005 3005 3004 3004 3003 3002 3001 3001 3000 3000 2999 2998 2997 2996 2995 2994 2993 2992 2991 2991 2990 2990 2990 2990 2990 2990 2990 2989 2989 2989 2989 2989 2989 2989 2988 2988 2988 2987 2986 2986 2985 2985 2985 2985 2984 2983 2983 2982 2981 2981 2981 2980 2980 2979 2979 2978 2978 2978 2978 2977 2977 2976 2975 2974 2974 2973 2973 2972 2972
3012 3012 3011 3010 3010 3010 3009 3008 3008 3007 3007 3006 3005 3005 3004 3004 3003 3002 3002 3001 3000 3000 2999 2998 2998 2997 2997 2996 2995 2995 2994 2993 2992 2990 2989 2989 2988 2987 2987 2987 2987 2986 2986 2986 2986 2986 2986 2986 2986 2986 2986 2986 2985 2985 2985 2984 2984 2983 2983 2983 2982 2982 2981 2980 2979 2979 2978 2978 2977 2977 2976 2976 2976 2975 2975 2975 2975 2974 2974 2973 2972 2971 2970 2970 2969 2969
3010 3009 3009 3008 3007 3007 3006 3005 3005 3005 3004 3003 3002 3002 3001 3000 3000 2999 2999 2998 2997 2997 2996 2995 2995 2995 2994 2993 2992 2991 2991 2990 2989 2988 2987 2986 2985 2985 2985 2984 2984 2984 2984 2984 2984 2984 2984 2984 2984 2984 2984 2983 2983 2982 2982 2981 2981 2981 2980 2980 2980 2979 2978 2977 2977 2976 2976 2975 2975 2974 2974 2973 2973 2973 2973 2973 2972 2972 2972 2971 2970 2968 2967 2966 2966 2965
3007 3006 3006 3005 3005 3004 3004 3003 3003 3002 3001 3000 3000 2999 2998 2998 2997 2996 2995 2995 2994 2994 2993 2992 2992 2991 2991 2990 2990 2989 2988 2987 2986 2985 2985 2984 2983 2983 2982 2982 2981 2981 2981 2981 2981 2981 2981 2981 2981 2981 2981 2980 2980 2979 2979 2979 2979 2978 2978 2977 2977 2976 2976 2975 2974 2974 2973 2973 2972 2971 2971 2970 2970 2970 2970 2970 2970 2970 2970 2969 2968 2966 2965 2964 2963 2962
3005 3004 3004 3003 3002 3002 3001 3000 3000 2999 2999 2998 2997 2996 2995 2995 2994 2993 2993 2992 2991 2990 2990 2989 2989 2988 2988 2987 2986 2985 2985 2984 2983 2983 2982 2981 2980 2980 2980 2980 2979 2979 2979 2979 2978 2978 2979 2979 2979 2979 2978 2977 2976 2976 2976 2976 2976 2976 2975 2975 2974 2974 2973 2973 2972 2971 2971 2970 2970 2969 2968 2967 2967 2966 2966 2966 2966 2967 2967 2966 2965 2964 2963 2961 2960 2960